Weather History for Ardmore Downtown, OK

Change the Weather History Date:

Saturday, March 8, 2014

  Actual Average (KADM) Record (KADM)
Temperature  
Mean Temperature 42 °F -  
Max Temperature 50 °F 58 °F 77 °F (2003)
Min Temperature 33 °F 40 °F 17 °F (2008)
Degree Days  
Heating Degree Days 24    
Moisture  
Dew Point 36 °F    
Average Humidity 80    
Maximum Humidity 93    
Minimum Humidity 66    
Precipitation  
Precipitation 0.00 in - - ()
Sea Level Pressure  
Sea Level Pressure 30.12 in    
Wind  
Wind Speed 6 mph (NNE)    
Max Wind Speed 16 mph    
Max Gust Speed 23 mph    
Visibility 9 miles    
Events Rain    
Averages and records for this station are not official NWS values.
T = Trace of Precipitation, MM = Missing Value Source: NWS Daily Summary

Daily Weather History Graph

Daily Weather History Graph

Search for Another Location

Airport:

Trip Planner

Search our weather history database for the weather conditions in past years. The results will help you decide how hot, cold, wet, or windy it might be!

Date:

Astronomy

Mar. 08, 2014 Rise Set
Actual Time 6:48 AM CST 6:30 PM CST
Civil Twilight 6:23 AM CST 6:55 PM CST
Nautical Twilight 5:54 AM CST 7:24 PM CST
Astronomical Twilight 5:25 AM CST 7:53 PM CST
Moon 11:47 AM CST (3/8) 1:13 AM CST (3/8)
Length of Visible Light 12h 32m
Length of Day
11h 42m
First Quarter, 52% of the Moon is Illuminated
Mar 8
First Quarter
Mar 16
Full
Mar 23
Last Quarter
Mar 30
New
Apr 7
First Quarter

Hourly Weather History & Observations

Time (CST) Temp. Windchill Dew Point Humidity Pressure Visibility Wind Dir Wind Speed Gust Speed Precip Events Conditions
12:15 AM 50.0 °F - 39.2 °F 66% 29.86 in 10.0 mi South 3.5 mph - N/A   Unknown
12:35 AM 50.0 °F - 39.2 °F 66% 29.88 in 10.0 mi Calm Calm - N/A   Unknown
12:55 AM 50.0 °F - 39.2 °F 66% 29.88 in 10.0 mi Calm Calm - N/A   Unknown
1:15 AM 46.4 °F - 37.4 °F 71% 29.89 in 10.0 mi Calm Calm - N/A   Unknown
1:35 AM 48.2 °F - 39.2 °F 71% 29.88 in 10.0 mi SE 4.6 mph - N/A   Unknown
1:55 AM 48.2 °F - 41.0 °F 76% 29.88 in 10.0 mi SE 4.6 mph - N/A   Unknown
2:15 AM 50.0 °F - 41.0 °F 71% 29.88 in 10.0 mi SE 5.8 mph - N/A   Unknown
2:35 AM 50.0 °F - 41.0 °F 71% 29.89 in 10.0 mi SSE 6.9 mph - N/A   Unknown
2:55 AM 50.0 °F - 41.0 °F 71% 29.89 in 10.0 mi SSE 5.8 mph - N/A   Unknown
3:15 AM 50.0 °F - 42.8 °F 76% 29.89 in 10.0 mi SSE 5.8 mph - N/A   Unknown
3:35 AM 50.0 °F - 42.8 °F 76% 29.89 in 10.0 mi SSE 6.9 mph - N/A   Unknown
3:55 AM 50.0 °F - 42.8 °F 76% 29.89 in 10.0 mi SSE 4.6 mph - N/A   Unknown
4:15 AM 50.0 °F - 42.8 °F 76% 29.90 in 10.0 mi SSE 5.8 mph - N/A   Unknown
4:35 AM 48.2 °F - 42.8 °F 82% 29.90 in 10.0 mi SSE 4.6 mph - N/A   Unknown
4:55 AM 48.2 °F - 42.8 °F 82% 29.91 in 10.0 mi Calm Calm - N/A   Unknown
5:10 AM 46.4 °F - 42.8 °F 87% 29.92 in 10.0 mi Calm Calm - N/A   Unknown
5:35 AM 46.4 °F 45.2 °F 42.8 °F 87% 29.93 in 10.0 mi NE 3.5 mph - N/A   Unknown
5:55 AM 46.4 °F 44.3 °F 42.8 °F 87% 29.95 in 10.0 mi NE 4.6 mph - N/A   Unknown
6:15 AM 46.4 °F 45.2 °F 41.0 °F 81% 29.97 in 10.0 mi NNE 3.5 mph - N/A   Unknown
6:35 AM 46.4 °F - 41.0 °F 81% 29.99 in 10.0 mi Calm Calm - N/A   Unknown
6:55 AM 46.4 °F 44.3 °F 41.0 °F 81% 30.00 in 10.0 mi NE 4.6 mph - N/A   Unknown
7:15 AM 46.4 °F 43.5 °F 41.0 °F 81% 29.99 in 10.0 mi NE 5.8 mph - N/A   Unknown
7:35 AM 46.4 °F 45.2 °F 41.0 °F 81% 30.02 in 10.0 mi NNW 3.5 mph - N/A   Unknown
7:55 AM 46.4 °F 43.5 °F 41.0 °F 81% 30.03 in 10.0 mi NNE 5.8 mph - N/A   Unknown
8:15 AM 46.4 °F 43.5 °F 41.0 °F 81% 30.04 in 10.0 mi NNE 5.8 mph - N/A   Unknown
8:35 AM 46.4 °F 43.5 °F 41.0 °F 81% 30.06 in 10.0 mi North 5.8 mph - N/A   Unknown
8:55 AM 46.4 °F 43.5 °F 39.2 °F 76% 30.09 in 7.0 mi NNW 5.8 mph - N/A   Light Drizzle
9:15 AM 44.6 °F 41.4 °F 37.4 °F 76% 30.10 in 5.0 mi North 5.8 mph - N/A Rain Light Rain
9:35 AM 44.6 °F 37.4 °F 37.4 °F 76% 30.08 in 5.0 mi NNE 16.1 mph 23.0 mph N/A Rain Light Rain
9:55 AM 42.8 °F 37.5 °F 37.4 °F 81% 30.10 in 5.0 mi NNE 9.2 mph 20.7 mph N/A   Haze
10:15 AM 42.8 °F 37.0 °F 37.4 °F 81% 30.12 in 5.0 mi North 10.4 mph 19.6 mph N/A   Haze
10:35 AM 42.8 °F 37.0 °F 37.4 °F 81% 30.13 in 5.0 mi North 10.4 mph 17.3 mph N/A   Light Drizzle
10:55 AM 42.8 °F 36.2 °F 37.4 °F 81% 30.14 in 5.0 mi NNE 12.7 mph 17.3 mph N/A   Haze
11:15 AM 41.0 °F 33.9 °F 35.6 °F 81% 30.16 in 5.0 mi North 12.7 mph 21.9 mph N/A   Haze
11:35 AM 41.0 °F 35.8 °F 35.6 °F 81% 30.17 in 5.0 mi North 8.1 mph - N/A   Haze
11:55 AM 41.0 °F 35.2 °F 35.6 °F 81% 30.17 in 5.0 mi NNE 9.2 mph 19.6 mph N/A   Haze
12:15 PM 41.0 °F 34.7 °F 33.8 °F 76% 30.16 in 5.0 mi NNE 10.4 mph 18.4 mph N/A   Haze
12:35 PM 41.0 °F 33.9 °F 33.8 °F 76% 30.15 in 7.0 mi NNE 12.7 mph 19.6 mph N/A   Unknown
12:55 PM 41.0 °F 34.7 °F 33.8 °F 76% 30.16 in 7.0 mi NNE 10.4 mph - N/A   Unknown
1:15 PM 41.0 °F 37.1 °F 33.8 °F 76% 30.18 in 7.0 mi North 5.8 mph - N/A   Unknown
1:35 PM 41.0 °F 35.8 °F 33.8 °F 76% 30.18 in 7.0 mi North 8.1 mph - N/A   Unknown
1:55 PM 41.0 °F 34.7 °F 32.0 °F 70% 30.18 in 7.0 mi North 10.4 mph - N/A   Unknown
2:15 PM 41.0 °F 36.4 °F 32.0 °F 70% 30.18 in 7.0 mi North 6.9 mph - N/A   Unknown
2:35 PM 41.0 °F 35.2 °F 32.0 °F 70% 30.19 in 7.0 mi North 9.2 mph 16.1 mph N/A   Unknown
2:55 PM 39.2 °F 33.0 °F 32.0 °F 75% 30.19 in 7.0 mi NNE 9.2 mph 16.1 mph N/A   Unknown
3:15 PM 39.2 °F 33.0 °F 32.0 °F 75% 30.20 in 10.0 mi NNE 9.2 mph 16.1 mph N/A   Unknown
3:35 PM 39.2 °F 32.0 °F 32.0 °F 75% 30.22 in 10.0 mi North 11.5 mph 17.3 mph N/A   Unknown
3:55 PM 37.4 °F 31.4 °F 32.0 °F 81% 30.21 in 10.0 mi North 8.1 mph - N/A   Unknown
4:15 PM 37.4 °F 30.8 °F 32.0 °F 81% 30.22 in 10.0 mi North 9.2 mph 19.6 mph N/A   Unknown
4:35 PM 37.4 °F 30.8 °F 32.0 °F 81% 30.22 in 10.0 mi NNE 9.2 mph 16.1 mph N/A   Unknown
4:55 PM 37.4 °F 30.8 °F 32.0 °F 81% 30.22 in 10.0 mi NNE 9.2 mph - N/A   Unknown
5:15 PM 37.4 °F 30.8 °F 32.0 °F 81% 30.24 in 10.0 mi NNE 9.2 mph 18.4 mph N/A   Unknown
5:35 PM 37.4 °F 30.8 °F 32.0 °F 81% 30.24 in 10.0 mi NNE 9.2 mph 16.1 mph N/A   Unknown
5:55 PM 37.4 °F 29.8 °F 32.0 °F 81% 30.26 in 10.0 mi North 11.5 mph 17.3 mph N/A   Unknown
6:10 PM 35.6 °F 29.2 °F 32.0 °F 87% 30.26 in 10.0 mi NNE 8.1 mph - N/A   Unknown
6:35 PM 35.6 °F 29.9 °F 32.0 °F 87% 30.27 in 7.0 mi North 6.9 mph - N/A   Unknown
6:55 PM 35.6 °F 28.6 °F 32.0 °F 87% 30.27 in 7.0 mi North 9.2 mph - N/A   Unknown
7:15 PM 35.6 °F 29.9 °F 32.0 °F 87% 30.28 in 10.0 mi North 6.9 mph 16.1 mph N/A   Unknown
7:35 PM 35.6 °F 29.2 °F 32.0 °F 87% 30.28 in 10.0 mi NNE 8.1 mph 17.3 mph N/A   Unknown
7:55 PM 35.6 °F 28.6 °F 32.0 °F 87% 30.29 in 10.0 mi NNE 9.2 mph - N/A   Unknown
8:15 PM 35.6 °F 29.9 °F 32.0 °F 87% 30.29 in 10.0 mi North 6.9 mph - N/A   Unknown
8:35 PM 35.6 °F 30.7 °F 32.0 °F 87% 30.30 in 10.0 mi North 5.8 mph - N/A   Unknown
8:55 PM 35.6 °F 29.9 °F 32.0 °F 87% 30.30 in 10.0 mi NNE 6.9 mph - N/A   Unknown
9:15 PM 35.6 °F 29.9 °F 32.0 °F 87% 30.31 in 10.0 mi North 6.9 mph - N/A   Unknown
9:35 PM 33.8 °F 27.7 °F 32.0 °F 93% 30.32 in 10.0 mi North 6.9 mph - N/A   Unknown
9:55 PM 33.8 °F 27.0 °F 32.0 °F 93% 30.32 in 10.0 mi North 8.1 mph - N/A   Unknown
10:15 PM 33.8 °F 29.6 °F 32.0 °F 93% 30.32 in 10.0 mi North 4.6 mph - N/A   Unknown
10:35 PM 35.6 °F 31.7 °F 32.0 °F 87% 30.32 in 10.0 mi North 4.6 mph - N/A   Unknown
10:55 PM 35.6 °F 29.9 °F 32.0 °F 87% 30.32 in 10.0 mi North 6.9 mph - N/A   Unknown
11:15 PM 35.6 °F 32.8 °F 32.0 °F 87% 30.32 in 10.0 mi North 3.5 mph - N/A   Unknown
11:35 PM 35.6 °F 30.7 °F 32.0 °F 87% 30.32 in 10.0 mi North 5.8 mph - N/A   Unknown
11:55 PM 35.6 °F 30.7 °F 32.0 °F 87% 30.31 in 10.0 mi North 5.8 mph - N/A   Unknown